OK1HOL-13 Weather Reports


time (UTC)temp
C
wind
direction
speed
KPH
gust
KPH
rain 1hr
cm
rain 24hr
cm
rain mn
cm
humidity
%
barometer
mb
20260903131603 24 0.0 0.0 0.00 0.00 0.00 35 1018.3
20260903130603 25 0.0 0.0 0.00 0.00 0.00 34 1018.6
20260903125603 25 0.0 0.0 0.00 0.00 0.00 34 1018.4
20260903124603 25 0.0 0.0 0.00 0.00 0.00 35 1018.5
20260903123603 25 0.0 0.0 0.00 0.00 0.00 34 1018.6
20260903122603 25 0.0 0.0 0.00 0.00 0.00 33 1018.5
20260903121603 25 0.0 0.0 0.00 0.00 0.00 34 1018.7
20260903120603 24 0.0 0.0 0.00 0.00 0.00 35 1018.7
20260903115603 24 0.0 0.0 0.00 0.00 0.00 36 1018.7
20260903114603 24 0.0 0.0 0.00 0.00 0.00 34 1018.7
20260903113603 24 0.0 0.0 0.00 0.00 0.00 35 1018.7
20260903112603 23 0.0 0.0 0.00 0.00 0.00 36 1018.9
20260903111603 23 0.0 0.0 0.00 0.00 0.00 35 1019.0
20260903110603 23 0.0 0.0 0.00 0.00 0.00 36 1019.3
20260903105603 24 0.0 0.0 0.00 0.00 0.00 35 1019.4
20260903104603 24 0.0 0.0 0.00 0.00 0.00 36 1019.5
20260903103603 23 0.0 0.0 0.00 0.00 0.00 37 1019.8
20260903102603 24 0.0 0.0 0.00 0.00 0.00 35 1019.7
20260903101603 25 0.0 0.0 0.00 0.00 0.00 35 1019.8
20260903100603 25 0.0 0.0 0.00 0.00 0.00 32 1019.9
20260903095603 26 0.0 0.0 0.00 0.00 0.00 31 1020.0
20260903094603 24 0.0 0.0 0.00 0.00 0.00 36 1020.0
20260903093603 25 0.0 0.0 0.00 0.00 0.00 34 1020.0
20260903092603 24 0.0 0.0 0.00 0.00 0.00 36 1020.1
20260903091603 22 0.0 0.0 0.00 0.00 0.00 38 1020.1
20260903090603 22 0.0 0.0 0.00 0.00 0.00 38 1020.0
20260903085603 22 0.0 0.0 0.00 0.00 0.00 38 1020.1
20260903084603 22 0.0 0.0 0.00 0.00 0.00 41 1020.1
20260903083603 22 0.0 0.0 0.00 0.00 0.00 40 1020.3
20260903082603 23 0.0 0.0 0.00 0.00 0.00 41 1020.2
20260903081603 23 0.0 0.0 0.00 0.00 0.00 43 1020.1
20260903080603 24 0.0 0.0 0.00 0.00 0.00 42 1020.3
20260903075603 24 0.0 0.0 0.00 0.00 0.00 42 1020.4
20260903074603 24 0.0 0.0 0.00 0.00 0.00 44 1020.4
20260903073603 23 0.0 0.0 0.00 0.00 0.00 45 1020.4
20260903072603 22 0.0 0.0 0.00 0.00 0.00 49 1020.5
20260903071603 21 0.0 0.0 0.00 0.00 0.00 54 1020.5
20260903070603 22 0.0 0.0 0.00 0.00 0.00 50 1020.6
20260903065603 21 0.0 0.0 0.00 0.00 0.00 55 1020.6
20260903064603 20 0.0 0.0 0.00 0.00 0.00 60 1020.7
20260903063603 18 0.0 0.0 0.00 0.00 0.00 62 1020.7
20260903062603 19 0.0 0.0 0.00 0.00 0.00 64 1020.5
20260903061606 18 0.0 0.0 0.00 0.00 0.00 66 1020.5
20260903060603 17 0.0 0.0 0.00 0.00 0.00 71 1020.5
20260903055602 17 0.0 0.0 0.00 0.00 0.00 73 1020.4
20260903054602 17 0.0 0.0 0.00 0.00 0.00 74 1020.4
20260903053602 16 0.0 0.0 0.00 0.00 0.00 75 1020.4
20260903052601 16 0.0 0.0 0.00 0.00 0.00 75 1020.4
20260903051602 16 0.0 0.0 0.00 0.00 0.00 76 1020.2
20260903050602 16 0.0 0.0 0.00 0.00 0.00 76 1020.2
20260903045601 16 0.0 0.0 0.00 0.00 0.00 76 1020.3
20260903044602 16 0.0 0.0 0.00 0.00 0.00 76 1020.2
20260903043601 16 0.0 0.0 0.00 0.00 0.00 77 1020.1
20260903042602 16 0.0 0.0 0.00 0.00 0.00 76 1020.1
20260903041602 16 0.0 0.0 0.00 0.00 0.00 77 1020.0
20260903040601 16 0.0 0.0 0.00 0.00 0.00 76 1020.0
20260903035602 16 0.0 0.0 0.00 0.00 0.00 77 1019.9
20260903034602 16 0.0 0.0 0.00 0.00 0.00 76 1020.0
20260903033602 16 0.0 0.0 0.00 0.00 0.00 77 1020.0
20260903032601 16 0.0 0.0 0.00 0.00 0.00 77 1020.0
20260903031602 16 0.0 0.0 0.00 0.00 0.00 77 1020.1
20260903030602 16 0.0 0.0 0.00 0.00 0.00 78 1020.1
20260903025601 16 0.0 0.0 0.00 0.00 0.00 76 1020.1
20260903024602 16 0.0 0.0 0.00 0.00 0.00 77 1020.0
20260903023601 16 0.0 0.0 0.00 0.00 0.00 77 1020.0
20260903022601 16 0.0 0.0 0.00 0.00 0.00 78 1019.9
20260903021602 16 0.0 0.0 0.00 0.00 0.00 77 1019.9
20260903020602 16 0.0 0.0 0.00 0.00 0.00 77 1020.0
20260903015601 16 0.0 0.0 0.00 0.00 0.00 77 1019.8
20260903014601 16 0.0 0.0 0.00 0.00 0.00 76 1019.8
20260903013602 16 0.0 0.0 0.00 0.00 0.00 75 1019.9
20260903012602 16 0.0 0.0 0.00 0.00 0.00 75 1019.9
20260903011602 16 0.0 0.0 0.00 0.00 0.00 75 1020.0
20260903010602 16 0.0 0.0 0.00 0.00 0.00 76 1020.0
20260903005602 16 0.0 0.0 0.00 0.00 0.00 73 1020.0
20260903004601 17 0.0 0.0 0.00 0.00 0.00 73 1019.9
20260903003601 17 0.0 0.0 0.00 0.00 0.00 73 1019.9
20260903002601 17 0.0 0.0 0.00 0.00 0.00 73 1019.9
20260903001602 17 0.0 0.0 0.00 0.00 0.00 71 1019.9
20260903000602 17 0.0 0.0 0.00 0.00 0.00 70 1019.9
20260902235602 17 0.0 0.0 0.00 0.00 0.00 69 1019.9
20260902234602 17 0.0 0.0 0.00 0.00 0.00 68 1019.8
20260902233601 17 0.0 0.0 0.00 0.00 0.00 68 1019.7
20260902232602 17 0.0 0.0 0.00 0.00 0.00 67 1019.8
20260902231602 18 0.0 0.0 0.00 0.00 0.00 66 1019.7
20260902230602 17 0.0 0.0 0.00 0.00 0.00 66 1019.7
20260902225602 18 0.0 0.0 0.00 0.00 0.00 65 1019.7
20260902224602 18 0.0 0.0 0.00 0.00 0.00 65 1019.8
20260902223601 18 0.0 0.0 0.00 0.00 0.00 65 1019.8
20260902222601 18 0.0 0.0 0.00 0.00 0.00 64 1019.7
20260902221602 18 0.0 0.0 0.00 0.00 0.00 64 1019.8
20260902220601 18 0.0 0.0 0.00 0.00 0.00 64 1019.8
20260902215602 18 0.0 0.0 0.00 0.00 0.00 63 1019.6
20260902214601 18 0.0 0.0 0.00 0.00 0.00 61 1019.6
20260902213602 19 0.0 0.0 0.00 0.00 0.00 60 1019.6
20260902212602 19 0.0 0.0 0.00 0.00 0.00 60 1019.6
20260902211602 19 0.0 0.0 0.00 0.00 0.00 59 1019.6
20260902210602 19 0.0 0.0 0.00 0.00 0.00 58 1019.6
20260902205602 20 0.0 0.0 0.00 0.00 0.00 58 1019.6
20260902204601 20 0.0 0.0 0.00 0.00 0.00 57 1019.6
20260902203602 20 0.0 0.0 0.00 0.00 0.00 57 1019.4
20260902202602 20 0.0 0.0 0.00 0.00 0.00 58 1019.3
20260902201601 20 0.0 0.0 0.00 0.00 0.00 56 1019.3
20260902200601 20 0.0 0.0 0.00 0.00 0.00 56 1019.2
20260902195602 20 0.0 0.0 0.00 0.00 0.00 55 1019.1
20260902194602 20 0.0 0.0 0.00 0.00 0.00 54 1019.2
20260902193602 21 0.0 0.0 0.00 0.00 0.00 52 1019.2
20260902192602 21 0.0 0.0 0.00 0.00 0.00 51 1019.2
20260902191602 21 0.0 0.0 0.00 0.00 0.00 49 1019.2
20260902190602 21 0.0 0.0 0.00 0.00 0.00 49 1019.1
20260902185602 22 0.0 0.0 0.00 0.00 0.00 47 1019.0
20260902184602 22 0.0 0.0 0.00 0.00 0.00 45 1019.0
20260902183602 22 0.0 0.0 0.00 0.00 0.00 44 1018.9
20260902182602 22 0.0 0.0 0.00 0.00 0.00 43 1018.7
20260902181604 23 0.0 0.0 0.00 0.00 0.00 41 1018.4
20260902180600 23 0.0 0.0 0.00 0.00 0.00 40 1018.1
20260902175600 23 0.0 0.0 0.00 0.00 0.00 38 1018.0
20260902174600 24 0.0 0.0 0.00 0.00 0.00 37 1017.9
20260902173600 24 0.0 0.0 0.00 0.00 0.00 36 1017.9
20260902172600 24 0.0 0.0 0.00 0.00 0.00 35 1017.9
20260902171600 24 0.0 0.0 0.00 0.00 0.00 35 1017.9
20260902170600 24 0.0 0.0 0.00 0.00 0.00 35 1017.9
20260902165600 24 0.0 0.0 0.00 0.00 0.00 36 1018.0
20260902164600 24 0.0 0.0 0.00 0.00 0.00 36 1018.0
20260902162600 25 0.0 0.0 0.00 0.00 0.00 34 1018.2
20260902161600 25 0.0 0.0 0.00 0.00 0.00 34 1018.2
20260902160600 26 0.0 0.0 0.00 0.00 0.00 33 1018.1
20260902155600 26 0.0 0.0 0.00 0.00 0.00 32 1018.1
20260902154600 26 0.0 0.0 0.00 0.00 0.00 33 1018.1
20260902153600 27 0.0 0.0 0.00 0.00 0.00 31 1018.2
20260902152600 27 0.0 0.0 0.00 0.00 0.00 30 1018.3
20260902151600 28 0.0 0.0 0.00 0.00 0.00 28 1018.4
20260902150600 27 0.0 0.0 0.00 0.00 0.00 30 1018.5
20260902145600 26 0.0 0.0 0.00 0.00 0.00 33 1018.6
20260902144600 26 0.0 0.0 0.00 0.00 0.00 33 1018.7
20260902143600 27 0.0 0.0 0.00 0.00 0.00 30 1018.7
20260902142600 27 0.0 0.0 0.00 0.00 0.00 30 1018.8
20260902141600 28 0.0 0.0 0.00 0.00 0.00 28 1018.9
20260902140600 28 0.0 0.0 0.00 0.00 0.00 29 1018.9
20260902135600 27 0.0 0.0 0.00 0.00 0.00 30 1019.0
20260902134600 26 0.0 0.0 0.00 0.00 0.00 32 1019.2
20260902133600 26 0.0 0.0 0.00 0.00 0.00 31 1019.2